Weather History for Burlington, CO

Change the Weather History Date:

Sunday, November 11, 2012

  Actual Average Record
Temperature  
Mean Temperature 25 °F 40 °F  
Max Temperature 34 °F 55 °F 81 °F (1943)
Min Temperature 16 °F 26 °F 4 °F (1940)
Degree Days  
Heating Degree Days 40    
Moisture  
Dew Point 14 °F    
Average Humidity 69    
Maximum Humidity 92    
Minimum Humidity 43    
Precipitation  
Precipitation T in 0.03 in 0.17 in (1949)
Month to date precipitation T 0.33  
Year to date precipitation 10.56 16.77  
Sea Level Pressure  
Sea Level Pressure 30.03 in    
Wind  
Wind Speed 12 mph (NNW)    
Max Wind Speed 17 mph    
Max Gust Speed 25 mph    
Visibility 10 miles    
Events Snow    
T = Trace of Precipitation, MM = Missing Value Source: NWS Daily Summary

Daily Weather History Graph

Daily Weather History Graph

Search for Another Location

Airport:

Trip Planner

Search our weather history database for the weather conditions in past years. The results will help you decide how hot, cold, wet, or windy it might be!

Date:

Astronomy

Nov. 11, 2012 Rise Set
Actual Time 6:28 AM MST 4:37 PM MST
Civil Twilight 6:00 AM MST 5:05 PM MST
Nautical Twilight 5:28 AM MST 5:37 PM MST
Astronomical Twilight 4:56 AM MST 6:09 PM MST
Moon 3:45 AM MST (11/11) 3:01 PM MST (11/11)
Length of Visible Light 11h 05m
Length of Day
10h 08m
Waning Crescent, 7% of the Moon is Illuminated
Nov 11
Waning Crescent
Nov 13
New
Nov 20
First Quarter
Nov 28
Full
Dec 6
Last Quarter

Hourly Weather History & Observations

Time (MST) Temp. Windchill Dew Point Humidity Pressure Visibility Wind Dir Wind Speed Gust Speed Precip Events Conditions
12:04 AM 26.6 °F 16.8 °F 21.2 °F 80% 29.83 in 10.0 mi North 10.4 mph - N/A   Overcast
12:27 AM 24.8 °F 14.0 °F 19.4 °F 80% 29.84 in 10.0 mi North 11.5 mph - N/A   Overcast
12:34 AM 24.8 °F 12.4 °F 19.4 °F 80% 29.85 in 10.0 mi North 15.0 mph - N/A   Overcast
12:42 AM 24.8 °F 14.6 °F 19.4 °F 80% 29.85 in 10.0 mi North 10.4 mph - N/A   Overcast
12:50 AM 24.8 °F 12.9 °F 19.4 °F 80% 29.85 in 9.0 mi North 13.8 mph - 0.00 in Snow Light Snow
12:53 AM 25.0 °F 13.1 °F 19.9 °F 81% 29.83 in 9.0 mi North 13.8 mph - 0.00 in Snow Light Snow
1:01 AM 24.8 °F 12.9 °F 19.4 °F 80% 29.86 in 9.0 mi North 13.8 mph - 0.00 in   Overcast
1:11 AM 24.8 °F 11.5 °F 19.4 °F 80% 29.86 in 10.0 mi North 17.3 mph 21.9 mph 0.00 in   Overcast
1:53 AM 23.0 °F 9.2 °F 17.1 °F 78% 29.89 in 10.0 mi North 17.3 mph 25.3 mph 0.00 in   Overcast
2:39 AM 21.2 °F 7.3 °F 15.8 °F 80% 29.88 in 10.0 mi North 16.1 mph - N/A   Overcast
2:53 AM 21.9 °F 9.2 °F 16.0 °F 78% 29.92 in 10.0 mi North 13.8 mph - N/A   Overcast
3:53 AM 19.9 °F 8.6 °F 12.9 °F 74% 29.95 in 10.0 mi North 10.4 mph - N/A   Mostly Cloudy
4:00 AM 19.4 °F 7.2 °F 12.2 °F 74% 29.90 in 10.0 mi North 11.5 mph - N/A   Mostly Cloudy
4:08 AM 19.4 °F 6.6 °F 12.2 °F 74% 29.90 in 10.0 mi NNW 12.7 mph - N/A   Mostly Cloudy
4:53 AM 19.9 °F 7.9 °F 12.0 °F 71% 29.97 in 10.0 mi NNW 11.5 mph - N/A   Overcast
5:53 AM 19.0 °F 4.5 °F 12.0 °F 74% 29.99 in 10.0 mi NW 16.1 mph - N/A   Overcast
6:53 AM 18.0 °F 3.1 °F 9.0 °F 68% 30.02 in 10.0 mi NNW 16.1 mph 21.9 mph N/A   Overcast
7:53 AM 19.0 °F 5.6 °F 10.0 °F 68% 30.05 in 10.0 mi NNW 13.8 mph - N/A   Overcast
10:11 AM 26.6 °F 16.8 °F 8.6 °F 47% 30.02 in 10.0 mi NNW 10.4 mph - N/A   Mostly Cloudy
10:53 AM 28.0 °F 18.1 °F 9.0 °F 45% 30.10 in 10.0 mi NNW 11.5 mph 18.4 mph N/A   Overcast
11:30 AM 28.4 °F 18.0 °F 12.2 °F 51% 30.02 in 10.0 mi NNW 12.7 mph 24.2 mph N/A   Scattered Clouds
11:53 AM 28.9 °F 18.6 °F 12.0 °F 49% 30.09 in 10.0 mi NNW 12.7 mph 17.3 mph N/A   Clear
12:53 PM 30.9 °F 21.7 °F 12.9 °F 47% 30.08 in 10.0 mi WNW 11.5 mph - N/A   Clear
1:53 PM 33.1 °F 26.1 °F 14.0 °F 46% 30.09 in 10.0 mi NW 8.1 mph - N/A   Clear
2:53 PM 33.1 °F 25.5 °F 12.9 °F 43% 30.11 in 10.0 mi North 9.2 mph - N/A   Clear
3:53 PM 30.9 °F 26.2 °F 12.9 °F 47% 30.14 in 10.0 mi North 4.6 mph - N/A   Clear
4:53 PM 28.0 °F 22.8 °F 12.0 °F 51% 30.17 in 10.0 mi NE 4.6 mph - N/A   Clear
5:53 PM 24.1 °F 18.2 °F 10.9 °F 57% 30.22 in 10.0 mi SSE 4.6 mph - N/A   Clear
6:53 PM 21.9 °F 14.5 °F 10.0 °F 60% 30.26 in 10.0 mi SSW 5.8 mph - N/A   Mostly Cloudy
7:53 PM 21.9 °F 14.5 °F 10.0 °F 60% 30.28 in 10.0 mi South 5.8 mph - N/A   Clear
8:53 PM 18.0 °F 7.7 °F 12.0 °F 78% 30.31 in 10.0 mi WSW 8.1 mph - N/A   Clear
9:53 PM 18.0 °F 6.9 °F 15.1 °F 88% 30.30 in 10.0 mi WSW 9.2 mph - N/A   Clear
10:53 PM 19.0 °F 8.2 °F 16.0 °F 88% 30.31 in 10.0 mi WSW 9.2 mph - N/A   Clear
11:53 PM 16.0 °F 6.3 °F 14.0 °F 92% 30.32 in 10.0 mi WSW 6.9 mph - N/A   Clear